FW7112 Weather Reports


Display with metric or nautical units.
time (UTC)temp
F
wind
direction
speed
MPH
gust
MPH
rain 1hr
in
rain 24hr
in
rain mn
in
humidity
%
barometer
mb
20260505003559 69 0 0.0 2.0 0.00 0.00 0.00 45 1009.2
20260505003100 70 17 0.0 2.0 0.00 0.00 0.00 42 1009.2
20260505002559 70 0 0.0 2.0 0.00 0.00 0.00 44 1009.1
20260505002100 71 16 0.0 3.0 0.00 0.00 0.00 43 1009.1
20260505001604 71 0 0.0 3.0 0.00 0.00 0.00 42 1009.0
20260505001059 71 326 0.0 3.0 0.00 0.00 0.00 42 1009.0
20260505000559 72 0 0.0 3.0 0.00 0.00 0.00 41 1009.2
20260504235559 72 310 0.0 4.0 0.00 0.00 0.00 40 1009.1
20260504235058 72 308 0.0 5.0 0.00 0.00 0.00 40 1008.9
20260504234559 72 311 0.0 5.0 0.00 0.00 0.00 39 1008.9
20260504234057 72 321 0.0 4.0 0.00 0.00 0.00 40 1009.0
20260504233559 72 0 0.0 6.0 0.00 0.00 0.00 39 1009.0
20260504233108 73 125 1.0 6.0 0.00 0.00 0.00 39 1008.9
20260504232557 73 63 1.0 5.0 0.00 0.00 0.00 39 1009.0
20260504232101 73 0 1.0 5.0 0.00 0.00 0.00 38 1008.9
20260504231604 73 316 0.0 4.0 0.00 0.00 0.00 38 1008.8
20260504231059 73 356 1.0 4.0 0.00 0.00 0.00 39 1008.9
20260504230600 73 148 1.0 6.0 0.00 0.00 0.00 40 1008.9
20260504230100 74 139 2.0 6.0 0.00 0.00 0.00 39 1008.8
20260504225600 74 323 1.0 10.0 0.00 0.00 0.00 37 1008.9
20260504225101 74 0 1.0 10.0 0.00 0.00 0.00 36 1008.8
20260504224601 74 117 2.0 9.0 0.00 0.00 0.00 36 1008.8
20260504224059 75 0 1.0 9.0 0.00 0.00 0.00 35 1008.6
20260504223559 75 158 3.0 9.0 0.00 0.00 0.00 35 1008.7
20260504223058 76 301 3.0 9.0 0.00 0.00 0.00 33 1008.8
20260504222559 76 212 3.0 10.0 0.00 0.00 0.00 34 1008.8
20260504222059 76 140 3.0 11.0 0.00 0.00 0.00 34 1008.9
20260504221600 76 308 3.0 11.0 0.00 0.00 0.00 34 1008.7
20260504221057 76 336 2.0 7.0 0.00 0.00 0.00 34 1008.8
20260504220600 77 150 0.0 7.0 0.00 0.00 0.00 36 1008.6
20260504220058 76 239 2.0 13.0 0.00 0.00 0.00 36 1008.7
20260504215559 77 125 3.0 13.0 0.00 0.00 0.00 33 1008.9
20260504215100 77 152 4.0 10.0 0.00 0.00 0.00 34 1008.8
20260504214558 77 156 2.0 10.0 0.00 0.00 0.00 35 1008.7
20260504214059 77 143 3.0 11.0 0.00 0.00 0.00 34 1008.8
20260504213559 77 137 3.0 11.0 0.00 0.00 0.00 34 1008.8
20260504213057 76 316 2.0 8.0 0.00 0.00 0.00 36 1008.9
20260504212600 75 134 2.0 8.0 0.00 0.00 0.00 37 1009.0
20260504212100 74 0 2.0 9.0 0.00 0.00 0.00 36 1008.9
20260504211556 73 69 2.0 9.0 0.00 0.00 0.00 36 1008.8
20260504211101 74 154 2.0 12.0 0.00 0.00 0.00 36 1008.9
20260504210559 75 123 4.0 12.0 0.00 0.00 0.00 34 1008.9
20260504210107 76 339 3.0 10.0 0.00 0.00 0.00 35 1008.8
20260504205557 77 298 3.0 8.0 0.00 0.00 0.00 32 1008.7
20260504205058 78 144 3.0 8.0 0.00 0.00 0.00 31 1008.8
20260504204607 79 124 3.0 8.0 0.00 0.00 0.00 30 1008.9
20260504204059 78 216 2.0 5.0 0.00 0.00 0.00 34 1008.8
20260504203559 79 152 1.0 5.0 0.00 0.00 0.00 34 1008.7
20260504203108 78 0 2.0 5.0 0.00 0.00 0.00 34 1008.8
20260504202600 78 308 2.0 5.0 0.00 0.00 0.00 31 1008.9
20260504202100 79 152 3.0 8.0 0.00 0.00 0.00 32 1008.8
20260504201600 78 307 1.0 8.0 0.00 0.00 0.00 33 1008.9
20260504201102 78 337 3.0 9.0 0.00 0.00 0.00 30 1009.0
20260504200559 78 325 3.0 9.0 0.00 0.00 0.00 32 1009.1
20260504200100 78 333 2.0 14.0 0.00 0.00 0.00 30 1009.1
20260504195612 78 330 2.0 14.0 0.00 0.00 0.00 30 1009.2
20260504195059 78 23 3.0 14.0 0.00 0.00 0.00 30 1009.4
20260504194613 77 358 3.0 8.0 0.00 0.00 0.00 31 1009.4
20260504194101 77 346 4.0 10.0 0.00 0.00 0.00 31 1009.4
20260504193559 78 137 3.0 10.0 0.00 0.00 0.00 32 1009.4
20260504193102 78 127 1.0 5.0 0.00 0.00 0.00 32 1009.6
20260504192600 77 0 1.0 13.0 0.00 0.00 0.00 32 1009.7
20260504192100 77 21 4.0 13.0 0.00 0.00 0.00 34 1009.9
20260504191600 77 244 3.0 7.0 0.00 0.00 0.00 33 1010.0
20260504191101 77 144 2.0 6.0 0.00 0.00 0.00 32 1009.9
20260504190602 77 285 3.0 8.0 0.00 0.00 0.00 35 1010.0
20260504190129 77 325 2.0 8.0 0.00 0.00 0.00 35 1010.0
20260504185559 77 160 3.0 6.0 0.00 0.00 0.00 31 1010.2
20260504185059 77 0 2.0 5.0 0.00 0.00 0.00 34 1010.2
20260504184559 76 0 1.0 5.0 0.00 0.00 0.00 32 1010.2
20260504184101 76 339 2.0 9.0 0.00 0.00 0.00 33 1010.4
20260504183559 76 319 2.0 9.0 0.00 0.00 0.00 32 1010.4
20260504183101 76 132 1.0 8.0 0.00 0.00 0.00 33 1010.5
20260504182558 75 117 2.0 8.0 0.00 0.00 0.00 34 1010.6
20260504182101 75 332 2.0 7.0 0.00 0.00 0.00 35 1010.6
20260504181559 75 156 2.0 8.0 0.00 0.00 0.00 38 1010.7
20260504181059 75 137 2.0 8.0 0.00 0.00 0.00 35 1010.9
20260504180602 75 328 2.0 8.0 0.00 0.00 0.00 34 1010.8
20260504180059 75 176 1.0 8.0 0.00 0.00 0.00 39 1011.0
20260504175601 74 331 2.0 9.0 0.00 0.00 0.00 38 1011.1
20260504175100 74 158 1.0 9.0 0.00 0.00 0.00 36 1011.2
20260504174608 74 249 2.0 6.0 0.00 0.00 0.00 36 1011.3
20260504174101 74 119 1.0 8.0 0.00 0.00 0.00 38 1011.4
20260504173600 73 133 2.0 8.0 0.00 0.00 0.00 37 1011.5
20260504173103 73 0 2.0 7.0 0.00 0.00 0.00 38 1011.4
20260504172602 73 152 2.0 7.0 0.00 0.00 0.00 39 1011.5
20260504172100 72 318 1.0 8.0 0.00 0.00 0.00 38 1011.6
20260504171601 72 352 3.0 8.0 0.00 0.00 0.00 36 1011.7
20260504171100 72 127 2.0 6.0 0.00 0.00 0.00 37 1011.7
20260504170603 72 153 2.0 6.0 0.00 0.00 0.00 37 1011.8
20260504160107 67 140 2.0 5.0 0.00 0.00 0.00 45 1012.7
20260504151100 64 138 1.0 5.0 0.00 0.00 0.00 48 1013.1
20260504150600 64 138 1.0 7.0 0.00 0.00 0.00 50 1013.2
20260504141058 61 115 0.0 3.0 0.00 0.00 0.00 48 1013.3
20260504140558 60 0 0.0 4.0 0.00 0.00 0.00 49 1013.3
20260504130559 54 0 0.0 4.0 0.00 0.00 0.00 57 1013.9
20260504110602 46 0 0.0 2.0 0.00 0.00 0.00 80 1014.4
20260504100559 47 0 0.0 1.0 0.00 0.00 0.00 74 1014.2
20260504081607 46 0 0.0 0.0 0.00 0.00 0.00 82 1014.6
20260504081100 46 0 0.0 0.0 0.00 0.00 0.00 82 1014.5
20260504080600 45 0 0.0 0.0 0.00 0.00 0.00 82 1014.5
20260504060126 44 0 0.0 1.0 0.00 0.00 0.00 83 1015.0
20260504050600 42 0 0.0 0.0 0.00 0.00 0.00 82 1014.9
20260504050116 42 0 0.0 0.0 0.00 0.00 0.00 81 1015.0
20260504045559 42 0 0.0 0.0 0.00 0.00 0.00 81 1014.9
20260504045059 42 0 0.0 0.0 0.00 0.00 0.00 81 1015.0
20260504044558 42 0 0.0 0.0 0.00 0.00 0.00 81 1014.9
20260504044059 42 0 0.0 0.0 0.00 0.00 0.00 81 1014.8
20260504043600 42 0 0.0 0.0 0.00 0.00 0.00 82 1014.9
20260504043110 42 0 0.0 0.0 0.00 0.00 0.00 82 1014.9
20260504042559 42 0 0.0 0.0 0.00 0.00 0.00 81 1014.9
20260504042100 42 0 0.0 0.0 0.00 0.00 0.00 81 1014.7
20260504041600 41 0 0.0 0.0 0.00 0.00 0.00 80 1014.8
20260504041100 41 0 0.0 0.0 0.00 0.00 0.00 80 1014.7
20260504040600 41 0 0.0 0.0 0.00 0.00 0.00 79 1014.7
20260504040106 41 0 0.0 0.0 0.00 0.00 0.00 79 1014.9
20260504035602 42 0 0.0 0.0 0.00 0.00 0.00 79 1015.0
20260504035100 42 0 0.0 0.0 0.00 0.00 0.00 79 1015.0
20260504034601 42 0 0.0 0.0 0.00 0.00 0.00 78 1015.1
20260504034059 42 0 0.0 0.0 0.00 0.00 0.00 79 1015.0
20260504033559 42 0 0.0 0.0 0.00 0.00 0.00 78 1015.0
20260504033100 42 0 0.0 0.0 0.00 0.00 0.00 77 1014.9
20260504032600 42 0 0.0 0.0 0.00 0.00 0.00 77 1014.9
20260504032102 42 0 0.0 0.0 0.00 0.00 0.00 77 1014.7
20260504031605 42 0 0.0 0.0 0.00 0.00 0.00 76 1014.8
20260504031100 43 0 0.0 0.0 0.00 0.00 0.00 76 1014.7
20260504030600 43 0 0.0 0.0 0.00 0.00 0.00 75 1014.7
20260504030057 43 0 0.0 0.0 0.00 0.00 0.00 75 1014.8
20260504025559 43 0 0.0 0.0 0.00 0.00 0.00 74 1014.7
20260504025059 43 0 0.0 0.0 0.00 0.00 0.00 72 1014.6
20260504024558 43 0 0.0 0.0 0.00 0.00 0.00 73 1014.6
20260504024100 44 0 0.0 0.0 0.00 0.00 0.00 71 1014.6
20260504023559 44 0 0.0 0.0 0.00 0.00 0.00 71 1014.6
20260504023059 44 0 0.0 0.0 0.00 0.00 0.00 71 1014.6
20260504022600 44 0 0.0 0.0 0.00 0.00 0.00 69 1014.6
20260504022059 44 0 0.0 0.0 0.00 0.00 0.00 69 1014.6
20260504021557 45 0 0.0 0.0 0.00 0.00 0.00 68 1014.5
20260504021059 45 0 0.0 0.0 0.00 0.00 0.00 68 1014.5
20260504020559 45 0 0.0 0.0 0.00 0.00 0.00 68 1014.4
20260504020058 45 0 0.0 0.0 0.00 0.00 0.00 67 1014.5
20260504015559 46 0 0.0 0.0 0.00 0.00 0.00 66 1014.4
20260504015100 46 0 0.0 0.0 0.00 0.00 0.00 66 1014.3
20260504014603 46 0 0.0 0.0 0.00 0.00 0.00 65 1014.3
20260504014059 47 0 0.0 0.0 0.00 0.00 0.00 63 1014.3
20260504013600 47 0 0.0 0.0 0.00 0.00 0.00 61 1014.3
20260504013113 48 0 0.0 0.0 0.00 0.00 0.00 60 1014.2
20260504012559 48 0 0.0 0.0 0.00 0.00 0.00 61 1014.1
20260504012100 49 0 0.0 0.0 0.00 0.00 0.00 59 1014.0
20260504011559 49 0 0.0 0.0 0.00 0.00 0.00 58 1014.0
20260504011059 49 0 0.0 0.0 0.00 0.00 0.00 58 1013.9
20260504010559 49 0 0.0 0.0 0.00 0.00 0.00 56 1013.9
20260504010115 50 0 0.0 0.0 0.00 0.00 0.00 55 1014.0
20260504005600 50 0 0.0 0.0 0.00 0.00 0.00 55 1014.0
20260504005100 50 0 0.0 0.0 0.00 0.00 0.00 54 1014.0
20260504004600 51 0 0.0 0.0 0.00 0.00 0.00 53 1013.9
20260504004102 51 0 0.0 0.0 0.00 0.00 0.00 52 1013.8